National Weather Service Raw Text Product

Displaying AFOS PIL: RWRIA Received: 2018-12-06 13:00 UTC


853 
ASUS43 KDMX 061306
RWRIA 

WEATHER ROUNDUP FOR IOWA
NATIONAL WEATHER SERVICE DES MOINES IA
700 AM CST THU DEC 06 2018

NOTE: "FAIR" INDICATES FEW OR NO CLOUDS BELOW 12,000 FEET WITH NO
SIGNIFICANT WEATHER AND/OR OBSTRUCTIONS TO VISIBILITY.

* - THESE STATIONS ARE NOT NWS STATIONS...THUS NOT UNDER NWS
QUALITY CONTROL.  THEY ALSO DO NOT REPORT WEATHER SUCH 
AS PRECIPITATION OR FOG.  

IAZ001>003-012>014-020>022-031>034-043>046-061400-
   NORTHWEST IOWA
  
CITY           SKY/WX    TMP DP  RH WIND       PRES   REMARKS
CARROLL *      MOCLDY    18  14  86 NW7       30.33R WCI   8          
CHEROKEE *     CLOUDY    19  15  86 N5        30.34R WCI  12          
DENISON *      CLOUDY    19  14  79 N5        30.35R WCI  13          
LE MARS *      CLOUDY    12  10  92 W5        30.36R WCI   4          
ORANGE CITY *  CLOUDY    16  12  86 CALM      30.33R                  
SHELDON *      CLOUDY    19  18  93 NW8       30.31R WCI   9          
SIOUX CITY     PTCLDY    15  12  88 N8        30.37R WCI   4          
SPENCER        CLOUDY    19  14  81 NW8       30.31R WCI   9          
STORM LAKE *   CLOUDY    18  14  86 NW12      30.31R WCI   5          
$$
 
IAZ055>058-069>071-079>083-090>094-061400-
   SOUTHWEST IOWA
  
CITY           SKY/WX    TMP DP  RH WIND       PRES   REMARKS
ATLANTIC *     CLOUDY    19  18  93 N9        30.33R WCI   9          
AUDUBON *      CLOUDY    18  14  86 CALM      30.32R                  
CLARINDA *     CLOUDY    23  19  86 N14       30.35R WCI  11          
COUNCIL BLFS * CLOUDY    21  21 100 N14       30.32S WCI   8          
CRESTON *      CLOUDY    21  16  79 N12G18    30.30R WCI   9          
HARLAN  *        N/A    N/A N/A N/A MISG        N/A                   
LAMONI         CLOUDY    24  19  81 N15       30.27R WCI  11          
RED OAK *      CLOUDY    23  18  80 N17G23    30.34R WCI   9          
SHENANDOAH *   CLOUDY    25  21  86 N9        30.35R WCI  15          
$$
 
IAZ047>049-059>061-072>074-084-061400-
   CENTRAL IOWA
  
CITY           SKY/WX    TMP DP  RH WIND       PRES   REMARKS
AMES           CLOUDY    20  14  77 N12       30.32R WCI   8          
ANKENY *       MOCLDY    21  14  73 N10       30.32R WCI  10          
BOONE *        MOCLDY    19  14  79 N10       30.30R WCI   8          
CHARITON *     CLOUDY    25  19  80 N13       30.27R WCI  13          
DES MOINES     CLOUDY    22  13  68 N14G22    30.31R WCI   9          
GRINNELL*      CLOUDY    22  17  83 NW13      30.28R WCI  10          
KNOXVILLE *    CLOUDY    23  19  86 N15G21    30.27R WCI  10          
MARSHALLTOWN   CLOUDY    20  14  77 N12       30.29R WCI   8          
NEWTON *       CLOUDY    21  16  79 N14       30.29R WCI   8          
PELLA *        CLOUDY    23  16  72 N14       30.30R WCI  11          
PERRY *        FAIR      20  16  84 NW8       30.33R WCI  10          
$$
 
IAZ004>006-015-016-023>025-035-036-061400-
   NORTH CENTRAL IOWA
  
CITY           SKY/WX    TMP DP  RH WIND       PRES   REMARKS
ALGONA *       CLOUDY    18  14  86 NW10      30.29R WCI   6          
CLARION *      PTCLDY    14  10  85 NW9       30.31R WCI   2          
ESTHERVILLE    CLOUDY    17  13  84 NW9       30.30R WCI   6          
FORT DODGE *   PTCLDY    15  11  83 NW5       30.32R WCI   8          
MASON CITY     PTCLDY    12   9  87 NW10      30.29R WCI  -1          
FOREST CITY *  FAIR      16  12  86 NW9       30.28R WCI   4          
WEBSTER CITY * CLOUDY    16  12  86 NW9       30.30R WCI   4          
IOWA FALLS *   FAIR      19  14  81 NW10      30.31R WCI   7          
$$

IAZ007>011-017>019-026>030-037>042-050>054-066-061400-
   NORTHEAST IOWA
  
CITY           SKY/WX    TMP DP  RH WIND       PRES   REMARKS
CEDAR RAPIDS   MOCLDY    22  16  78 NW13      30.24R WCI  10          
CHARLES CITY * FAIR      14   9  79 NW12      30.27R WCI   0          
CLINTON *      CLOUDY    27  23  85 NW7       30.23  WCI  19          
DECORAH *      CLOUDY    18  14  86 NW8       30.23R WCI   7          
DUBUQUE        MOCLDY    23  16  74 NW13      30.20R WCI  11          
MONTICELLO *   MOCLDY    23  18  80 NW10G16   30.24R WCI  12          
WATERLOO       FAIR      20  13  74 NW9       30.28R WCI   9          
$$
 
IAZ064-065-067-068-078-061400-
   EAST CENTRAL IOWA
  
CITY           SKY/WX    TMP DP  RH WIND       PRES   REMARKS
DAVENPORT      CLOUDY    26  20  77 NW8       30.24R WCI  18          
IOWA CITY      MOCLDY    26  18  71 NW14      30.27R WCI  14          
MT. PLEASANT * CLOUDY    28  27  93 N14       30.24R WCI  17          
MUSCATINE *    CLOUDY    28  21  74 N9G16     30.25S WCI  20          
QUAD CITIES    MOCLDY    29  21  72 NW9       30.22R WCI  20          
$$
 
IAZ062-063-075>077-085>089-095>099-061400-
   SOUTHEAST IOWA
  
CITY           SKY/WX    TMP DP  RH WIND       PRES   REMARKS
BURLINGTON     CLOUDY    28  21  75 N14G21    30.23R WCI  17          
FAIRFIELD *    CLOUDY    27  21  80 NW16      30.24S WCI  14          
FORT MADISON * CLOUDY    28  25  86 N10       30.24R WCI  19          
KEOKUK *       CLOUDY    28  25  86 N8        30.23R WCI  20          
OSKALOOSA *    CLOUDY    24  18  78 N14       30.28R WCI  12          
CENTERVILLE *  CLOUDY    27  25  93 N14       30.27R WCI  15          
OTTUMWA        CLOUDY    24  19  81 NW16      30.27R WCI  11          
WASHINGTON *   CLOUDY    27  25  93 NW15      30.26R WCI  15          
$$

ABBREVIATIONS USED IN REMARKS
   TC - TEMPERATURES IN CELSIUS
  WCI - WIND CHILL INDEX
   HX - HEAT INDEX
  VSB - VISIBILITY  
$$

  

461 
ASUS43 KDMX 061301
RWRIA 

WEATHER ROUNDUP FOR IOWA
NATIONAL WEATHER SERVICE DES MOINES IA
700 AM CST THU DEC 06 2018

NOTE: "FAIR" INDICATES FEW OR NO CLOUDS BELOW 12,000 FEET WITH NO
SIGNIFICANT WEATHER AND/OR OBSTRUCTIONS TO VISIBILITY.

* - THESE STATIONS ARE NOT NWS STATIONS...THUS NOT UNDER NWS
QUALITY CONTROL.  THEY ALSO DO NOT REPORT WEATHER SUCH 
AS PRECIPITATION OR FOG.  

IAZ001>003-012>014-020>022-031>034-043>046-061400-
   NORTHWEST IOWA
  
CITY           SKY/WX    TMP DP  RH WIND       PRES   REMARKS
CARROLL *      MOCLDY    18  14  86 NW7       30.33R WCI   8          
CHEROKEE *     CLOUDY    19  15  86 N5        30.34R WCI  12          
DENISON *      CLOUDY    19  14  79 N5        30.35R WCI  13          
LE MARS *      CLOUDY    12  10  92 W5        30.36R WCI   4          
ORANGE CITY *  CLOUDY    16  12  86 CALM      30.33R                  
SHELDON *      CLOUDY    19  18  93 NW8       30.31R WCI   9          
SIOUX CITY     PTCLDY    15  12  88 N8        30.37R WCI   4          
SPENCER        CLOUDY    19  14  81 NW8       30.31R WCI   9          
STORM LAKE *   CLOUDY    18  14  86 NW12      30.31R WCI   5          
$$
 
IAZ055>058-069>071-079>083-090>094-061400-
   SOUTHWEST IOWA
  
CITY           SKY/WX    TMP DP  RH WIND       PRES   REMARKS
ATLANTIC *     CLOUDY    19  18  93 N9        30.33R WCI   9          
AUDUBON *      CLOUDY    18  14  86 CALM      30.32R                  
CLARINDA *     CLOUDY    23  19  86 N14       30.35R WCI  11          
COUNCIL BLFS * CLOUDY    21  21 100 N14       30.32S WCI   8          
CRESTON *      CLOUDY    21  16  79 N12G18    30.30R WCI   9          
HARLAN  *        N/A    N/A N/A N/A MISG        N/A                   
LAMONI         CLOUDY    24  19  81 N15       30.27R WCI  11          
RED OAK *      CLOUDY    23  18  80 N17G23    30.34R WCI   9          
SHENANDOAH *   CLOUDY    25  21  86 N9        30.35R WCI  15          
$$
 
IAZ047>049-059>061-072>074-084-061400-
   CENTRAL IOWA
  
CITY           SKY/WX    TMP DP  RH WIND       PRES   REMARKS
AMES           CLOUDY    20  14  77 N12       30.32R WCI   8          
ANKENY *       MOCLDY    21  14  73 N10       30.32R WCI  10          
BOONE *        MOCLDY    19  14  79 N10       30.30R WCI   8          
CHARITON *     CLOUDY    25  19  80 N13       30.27R WCI  13          
DES MOINES     CLOUDY    22  13  68 N14G22    30.31R WCI   9          
GRINNELL*      CLOUDY    22  17  83 NW13      30.28R WCI  10          
KNOXVILLE *    CLOUDY    23  19  86 N15G21    30.27R WCI  10          
MARSHALLTOWN   CLOUDY    20  14  77 N12       30.29R WCI   8          
NEWTON *       CLOUDY    21  16  79 N14       30.29R WCI   8          
PELLA *        CLOUDY    23  16  72 N14       30.30R WCI  11          
PERRY *        FAIR      20  16  84 NW8       30.33R WCI  10          
$$
 
IAZ004>006-015-016-023>025-035-036-061400-
   NORTH CENTRAL IOWA
  
CITY           SKY/WX    TMP DP  RH WIND       PRES   REMARKS
ALGONA *       CLOUDY    18  14  86 NW10      30.29R WCI   6          
CLARION *      PTCLDY    14  10  85 NW9       30.31R WCI   2          
ESTHERVILLE    CLOUDY    17  13  84 NW9       30.30R WCI   6          
FORT DODGE *   PTCLDY    15  11  83 NW5       30.32R WCI   8          
MASON CITY     PTCLDY    12   9  87 NW10      30.29R WCI  -1          
FOREST CITY *  FAIR      16  12  86 NW9       30.28R WCI   4          
IOWA FALLS *   FAIR      19  14  81 NW10      30.31R WCI   7          
$$

IAZ007>011-017>019-026>030-037>042-050>054-066-061400-
   NORTHEAST IOWA
  
CITY           SKY/WX    TMP DP  RH WIND       PRES   REMARKS
CEDAR RAPIDS   MOCLDY    22  16  78 NW13      30.24R WCI  10          
CHARLES CITY * FAIR      14   9  79 NW12      30.27R WCI   0          
CLINTON *      CLOUDY    27  23  85 NW7       30.23  WCI  19          
DECORAH *      CLOUDY    18  14  86 NW8       30.23R WCI   7          
DUBUQUE        MOCLDY    23  16  74 NW13      30.20R WCI  11          
MONTICELLO *   MOCLDY    23  18  80 NW10G16   30.24R WCI  12          
WATERLOO       FAIR      20  13  74 NW9       30.28R WCI   9          
$$
 
IAZ064-065-067-068-078-061400-
   EAST CENTRAL IOWA
  
CITY           SKY/WX    TMP DP  RH WIND       PRES   REMARKS
DAVENPORT      CLOUDY    26  20  77 NW8       30.24R WCI  18          
IOWA CITY      MOCLDY    26  18  71 NW14      30.27R WCI  14          
MT. PLEASANT * CLOUDY    28  27  93 N14       30.24R WCI  17          
MUSCATINE *    CLOUDY    28  21  74 N9G16     30.25S WCI  20          
QUAD CITIES    MOCLDY    29  21  72 NW9       30.22R WCI  20          
$$
 
IAZ062-063-075>077-085>089-095>099-061400-
   SOUTHEAST IOWA
  
CITY           SKY/WX    TMP DP  RH WIND       PRES   REMARKS
BURLINGTON     CLOUDY    28  21  75 N14G21    30.23R WCI  17          
FAIRFIELD *    CLOUDY    27  21  80 NW16      30.24S WCI  14          
FORT MADISON * CLOUDY    28  25  86 N10       30.24R WCI  19          
KEOKUK *       CLOUDY    28  25  86 N8        30.23R WCI  20          
OSKALOOSA *    CLOUDY    24  18  78 N14       30.28R WCI  12          
OTTUMWA        CLOUDY    24  19  81 NW16      30.27R WCI  11          
WASHINGTON *   CLOUDY    27  25  93 NW15      30.26R WCI  15          
$$

ABBREVIATIONS USED IN REMARKS
   TC - TEMPERATURES IN CELSIUS
  WCI - WIND CHILL INDEX
   HX - HEAT INDEX
  VSB - VISIBILITY  
$$